DW8397 Weather Reports


Display with metric or nautical units.
time (UTC)temp
F
wind
direction
speed
MPH
gust
MPH
rain 1hr
in
rain 24hr
in
rain mn
in
humidity
%
barometer
mb
20260906161549 62 350 0.0 5.0 0.00 0.09 0.07 80 1015.1
20260906160053 62 345 1.0 13.0 0.01 0.09 0.07 79 1015.2
20260906154547 63 17 1.0 9.0 0.01 0.09 0.07 76 1015.2
20260906153047 63 318 2.0 8.0 0.01 0.09 0.07 77 1015.1
20260906151545 62 28 0.0 7.0 0.01 0.09 0.07 85 1015.3
20260906150039 59 355 0.0 10.0 0.00 0.08 0.06 88 1015.4
20260906144542 58 347 4.0 8.0 0.00 0.08 0.06 87 1015.2
20260906143035 57 295 0.0 7.0 0.00 0.08 0.06 87 1015.0
20260906141530 56 42 0.0 0.0 0.00 0.08 0.06 87 1015.0
20260906140029 56 315 0.0 0.0 0.02 0.08 0.06 87 1015.0
20260906134527 55 298 0.0 0.0 0.02 0.08 0.06 87 1015.0
20260906133026 55 311 0.0 0.0 0.02 0.08 0.06 87 1014.9
20260906131527 54 209 0.0 0.0 0.02 0.08 0.06 87 1014.8
20260906130024 54 208 0.0 0.0 0.00 0.06 0.04 87 1014.9
20260906124522 53 208 0.0 0.0 0.00 0.06 0.04 87 1014.9
20260906123022 53 208 0.0 0.0 0.00 0.06 0.04 87 1014.8
20260906121521 53 208 0.0 0.0 0.00 0.06 0.04 87 1014.6
20260906120018 53 167 0.0 0.0 0.00 0.06 0.04 87 1014.7
20260906114616 53 167 0.0 0.0 0.00 0.06 0.04 87 1014.6
20260906113017 53 145 0.0 0.0 0.00 0.06 0.04 87 1014.3
20260906111513 53 145 0.0 0.0 0.00 0.06 0.04 87 1014.2
20260906110013 53 145 0.0 0.0 0.00 0.06 0.04 87 1014.0
20260906104508 53 145 0.0 0.0 0.00 0.06 0.04 87 1013.8
20260906103004 53 165 0.0 0.0 0.00 0.06 0.04 87 1013.6
20260906101507 53 166 0.0 0.0 0.00 0.06 0.04 88 1013.4
20260906100001 54 166 0.0 0.0 0.00 0.06 0.04 88 1013.4
20260906094600 54 165 0.0 0.0 0.00 0.06 0.04 87 1013.2
20260906093102 54 165 0.0 0.0 0.00 0.06 0.04 88 1013.1
20260906091556 54 165 0.0 0.0 0.00 0.06 0.04 88 1013.0
20260906090058 54 165 0.0 0.0 0.00 0.06 0.04 87 1012.9
20260906084555 54 165 0.0 0.0 0.00 0.06 0.04 88 1012.8
20260906083054 54 165 0.0 0.0 0.00 0.06 0.04 88 1012.7
20260906081553 54 165 0.0 0.0 0.00 0.06 0.04 88 1012.6
20260906080100 54 165 0.0 0.0 0.00 0.06 0.04 87 1012.8
20260906074551 54 165 0.0 0.0 0.00 0.06 0.04 88 1012.8
20260906073053 54 165 0.0 0.0 0.00 0.06 0.04 88 1012.5
20260906071553 54 165 0.0 0.0 0.01 0.06 0.04 88 1012.6
20260906070054 54 165 0.0 0.0 0.01 0.06 0.04 88 1012.5
20260906064551 55 165 0.0 0.0 0.01 0.06 0.04 88 1012.5
20260906063046 55 165 0.0 0.0 0.02 0.06 0.04 88 1012.5
20260906061545 55 165 0.0 0.0 0.01 0.05 0.03 88 1012.5
20260906060044 55 165 0.0 0.0 0.02 0.05 0.03 88 1012.6
20260906054557 56 165 0.0 0.0 0.03 0.05 0.03 88 1012.7
20260906053042 56 165 0.0 0.0 0.02 0.04 0.02 89 1012.7
20260906051602 56 165 0.0 0.0 0.02 0.04 0.02 89 1012.7
20260906050044 56 165 0.0 0.0 0.00 0.02 0.00 89 1012.8
20260906044548 56 165 0.0 0.0 0.00 0.02 0.00 89 1012.8
20260906043038 56 165 0.0 0.0 0.00 0.02 0.00 89 1012.8
20260906041537 56 165 0.0 0.0 0.00 0.02 0.00 89 1012.7
20260906034533 57 196 0.0 0.0 0.01 0.02 0.02 89 1012.8
20260906033044 57 196 0.0 0.0 0.02 0.02 0.02 89 1012.7
20260906031530 58 191 0.0 0.0 0.02 0.02 0.02 89 1012.6
20260906030029 58 138 0.0 0.0 0.01 0.01 0.01 89 1012.3
20260906024527 59 199 0.0 9.0 0.01 0.01 0.01 88 1012.0
20260906023026 60 143 0.0 10.0 0.00 0.00 0.00 88 1012.2
20260906021526 61 65 2.0 10.0 0.00 0.00 0.00 87 1012.0
20260906020025 61 334 0.0 6.0 0.00 0.00 0.00 87 1011.8
20260906014528 62 30 2.0 9.0 0.00 0.00 0.00 87 1011.7
20260906013028 62 26 2.0 10.0 0.00 0.00 0.00 87 1011.8
20260906011524 62 65 0.0 1.0 0.00 0.00 0.00 88 1011.9
20260906010023 62 355 0.0 0.0 0.00 0.00 0.00 88 1011.8
20260906004521 63 355 0.0 0.0 0.00 0.00 0.00 87 1011.7
20260906003020 63 13 0.0 0.0 0.00 0.00 0.00 87 1011.4
20260906001518 63 329 0.0 6.0 0.00 0.00 0.00 87 1011.3
20260906000019 63 20 0.0 7.0 0.00 0.00 0.00 87 1011.3
20260905234518 63 5 1.0 7.0 0.00 0.00 0.00 86 1011.1
20260905233014 64 333 0.0 0.0 0.00 0.00 0.00 85 1010.9
20260905231518 64 314 0.0 0.0 0.00 0.00 0.00 85 1010.7
20260905230012 64 16 2.0 11.0 0.00 0.00 0.00 84 1010.7
20260905224523 65 323 1.0 7.0 0.00 0.00 0.00 83 1010.5
20260905223010 65 323 0.0 6.0 0.00 0.00 0.00 82 1010.4
20260905221509 66 311 0.0 9.0 0.00 0.00 0.00 81 1010.3
20260905220009 66 61 1.0 6.0 0.00 0.00 0.00 81 1010.4
20260905214508 67 5 4.0 13.0 0.00 0.00 0.00 79 1010.3
20260905213006 67 360 3.0 10.0 0.00 0.00 0.00 79 1010.2
20260905211513 67 21 0.0 10.0 0.00 0.00 0.00 80 1010.0
20260905210007 67 32 6.0 11.0 0.00 0.00 0.00 78 1010.0
20260905204505 67 340 5.0 13.0 0.00 0.00 0.00 78 1010.0
20260905203004 67 338 2.0 7.0 0.00 0.00 0.00 80 1009.7
20260905201504 67 304 2.0 11.0 0.00 0.00 0.00 79 1009.7
20260905200009 68 309 4.0 11.0 0.00 0.00 0.00 78 1009.5
20260905194502 68 306 4.0 10.0 0.00 0.00 0.00 79 1009.7
20260905193002 68 24 1.0 8.0 0.00 0.00 0.00 78 1009.7
20260905191502 69 30 2.0 6.0 0.00 0.00 0.00 78 1009.7
20260905190104 68 330 2.0 9.0 0.00 0.00 0.00 79 1009.7
20260905184600 67 266 0.0 8.0 0.00 0.00 0.00 80 1009.6
20260905183056 68 300 1.0 13.0 0.00 0.00 0.00 78 1009.6
20260905181556 67 321 0.0 9.0 0.00 0.00 0.00 80 1009.5
20260905180103 67 287 3.0 8.0 0.00 0.00 0.00 81 1009.6
20260905174555 67 313 2.0 9.0 0.00 0.00 0.00 80 1009.7
20260905173111 68 350 3.0 8.0 0.00 0.00 0.00 78 1009.7
20260905171554 68 25 0.0 6.0 0.00 0.00 0.00 80 1009.6
20260905170108 66 314 1.0 7.0 0.00 0.00 0.00 79 1009.6
20260905164600 67 355 2.0 9.0 0.00 0.00 0.00 78 1009.6
20260905163050 67 5 4.0 9.0 0.00 0.00 0.00 79 1009.6